Retour au catalogue

FENGYUN 1C DEB

ActifSSO
NORAD 35234·DEBRIS·🇨🇳 China

Lancé May 10, 1999 depuis Taiyuan Satellite Launch Center

Loading…

Prochains Passages (prochaines 24 heures)

TLE

FraisSource: Space-Track

Époque: Sep 14, 2026, 08:40 UTC

1 35234U 99025DQS 26257.36161067  .00003177  00000-0  52531-3 0  9991
2 35234  98.0447 285.4686 0098009 110.2533 250.9241 14.67875912983969

Suivez FENGYUN 1C DEB en temps réel avec AllMySat

Download on the App Store